Location: Country Club Park
(34.0503°N, 118.3212°W)
Time: 02:25:02
(UTC+00:00)

Sich 1 - Pass Details

Date: 26 June 2022
Orbit: 593 x 623 km, 82.5° (Epoch: 08 August)

Event Time Altitude Azimuth Distance (km) Brightness Sun altitude
Rises 11:59:45 0° 178° (S) 2,867 6.1 -8.5°
Reaches altitude 10° 12:01:59 10° 175° (S) 1,962 5.3 -8.1°
Maximum altitude 12:06:16 63° 94° (E) 681 3.5 -7.4°
Drops below altitude 10° 12:10:33 10° 14° (NNE) 1,957 6.4 -6.7°
Sets 12:12:46 0° 11° (N) 2,859 7.2 -6.3°
